GW6106 Weather Reports


time (UTC)temp
F
wind
direction
speed
knots
gust
knots
rain 1hr
in
rain 24hr
in
rain mn
in
humidity
%
barometer
mb
20260510022349 51 250 2.6 4.3 0.13 0.00 0.09 90 1007.0
20260510021850 51 253 6.1 7.8 0.15 0.00 0.11 89 1007.0
20260510021349 52 263 7.8 11.3 0.14 0.00 0.09 88 1007.0
20260510020849 54 268 10.4 13.0 0.80 0.00 0.08 85 1007.0
20260510020350 57 249 7.8 10.4 0.02 0.00 0.00 75 1006.0
20260510015850 57 193 3.5 6.1 0.00 0.00 0.00 74 1005.0
20260510015349 57 171 3.5 6.1 0.00 0.00 0.00 74 1005.0
20260510014849 57 159 5.2 7.8 0.00 0.00 0.00 74 1005.0
20260510014349 57 203 2.6 4.3 0.00 0.00 0.00 74 1005.0
20260510013851 57 162 4.3 9.6 0.00 0.00 0.00 74 1005.0
20260510013349 57 175 2.6 4.3 0.00 0.00 0.00 74 1005.0
20260510012849 57 167 5.2 9.6 0.00 0.00 0.00 73 1005.0
20260510012349 57 148 3.5 5.2 0.00 0.00 0.00 74 1004.0
20260510011849 57 149 5.2 7.8 0.00 0.00 0.00 74 1004.0
20260510011349 57 150 4.3 6.1 0.00 0.00 0.00 73 1004.0
20260510010849 57 151 5.2 10.4 0.00 0.00 0.00 73 1005.0
20260510010349 57 151 4.3 7.8 0.00 0.00 0.00 74 1005.0
20260510005850 57 164 2.6 4.3 0.00 0.00 0.00 74 1005.0
20260510005349 57 160 3.5 4.3 0.00 0.00 0.00 73 1005.0
20260510004849 57 146 3.5 5.2 0.00 0.00 0.00 74 1004.0
20260510004349 57 155 4.3 7.8 0.00 0.00 0.00 74 1004.0
20260510003849 57 155 3.5 3.5 0.00 0.00 0.00 73 1005.0
20260510003349 57 150 3.5 5.2 0.00 0.00 0.00 73 1005.0
20260510002849 57 152 3.5 4.3 0.00 0.00 0.00 73 1004.0
20260510002349 58 153 2.6 3.5 0.00 0.00 0.00 73 1005.0
20260510001849 58 162 2.6 3.5 0.00 0.00 0.00 72 1004.0
20260510001349 58 146 3.5 7.0 0.00 0.00 0.00 72 1004.0
20260510000849 58 150 3.5 7.8 0.00 0.00 0.00 72 1005.0
20260510000349 58 154 2.6 4.3 0.00 0.00 0.00 72 1005.0
20260509235849 58 150 2.6 3.5 0.00 0.00 0.00 72 1005.0
20260509235349 58 159 3.5 5.2 0.00 0.00 0.00 71 1004.0
20260509234849 59 157 3.5 5.2 0.00 0.00 0.00 71 1005.0
20260509234349 59 150 3.5 7.8 0.00 0.00 0.00 70 1005.0
20260509233848 59 171 3.5 5.2 0.00 0.00 0.00 70 1005.0
20260509233350 59 158 4.3 7.0 0.00 0.00 0.00 69 1005.0
20260509232850 60 153 4.3 7.0 0.00 0.00 0.00 69 1005.0
20260509232349 60 155 4.3 6.1 0.00 0.00 0.00 68 1005.0
20260509231849 60 161 3.5 5.2 0.00 0.00 0.00 68 1005.0
20260509231350 60 169 3.5 4.3 0.00 0.00 0.00 68 1005.0
20260509230849 60 161 4.3 6.1 0.00 0.00 0.00 67 1005.0
20260509230350 61 157 3.5 5.2 0.00 0.00 0.00 66 1005.0
20260509225849 61 164 4.3 6.1 0.00 0.00 0.00 66 1005.0
20260509225349 61 166 3.5 5.2 0.00 0.00 0.00 66 1005.0
20260509224849 61 164 2.6 4.3 0.00 0.00 0.00 65 1005.0
20260509224349 61 187 3.5 5.2 0.00 0.00 0.00 65 1005.0
20260509223849 61 146 4.3 5.2 0.00 0.00 0.00 65 1005.0
20260509223349 62 156 4.3 7.0 0.00 0.00 0.00 65 1005.0
20260509222849 62 159 6.1 8.7 0.00 0.00 0.00 64 1005.0
20260509222349 62 146 4.3 5.2 0.00 0.00 0.00 63 1005.0
20260509221849 62 165 4.3 7.0 0.00 0.00 0.00 63 1005.0
20260509221349 62 182 3.5 5.2 0.00 0.00 0.00 63 1005.0
20260509220849 62 185 2.6 4.3 0.00 0.00 0.00 63 1005.0
20260509220349 63 163 5.2 7.8 0.00 0.00 0.00 62 1005.0
20260509215849 63 174 3.5 7.8 0.00 0.00 0.00 63 1005.0
20260509215349 63 152 3.5 4.3 0.00 0.00 0.00 62 1005.0
20260509214849 63 157 3.5 5.2 0.00 0.00 0.00 60 1005.0
20260509214349 63 171 3.5 5.2 0.00 0.00 0.00 60 1005.0
20260509213849 63 185 4.3 7.0 0.00 0.00 0.00 60 1005.0
20260509213349 63 199 2.6 6.1 0.00 0.00 0.00 60 1005.0
20260509212852 63 165 4.3 6.1 0.00 0.00 0.00 61 1005.0
20260509212349 63 191 3.5 6.1 0.00 0.00 0.00 58 1005.0
20260509211849 63 219 3.5 5.2 0.00 0.00 0.00 61 1005.0
20260509211350 63 151 5.2 7.0 0.00 0.00 0.00 61 1005.0
20260509210849 63 229 5.2 9.6 0.00 0.00 0.00 62 1005.0
20260509210349 63 198 2.6 3.5 0.00 0.00 0.00 62 1005.0
20260509205849 62 160 1.7 3.5 0.00 0.00 0.00 63 1005.0
20260509205349 63 159 4.3 6.1 0.00 0.00 0.00 62 1005.0
20260509204849 63 149 5.2 7.0 0.00 0.00 0.00 61 1005.0
20260509204349 62 175 3.5 5.2 0.00 0.00 0.00 62 1005.0
20260509203849 62 223 4.3 7.8 0.00 0.00 0.00 62 1005.0
20260509203349 62 155 5.2 7.0 0.00 0.00 0.00 62 1005.0
20260509202849 62 152 3.5 5.2 0.00 0.00 0.00 64 1005.0
20260509202349 61 147 5.2 7.0 0.00 0.00 0.00 65 1005.0
20260509201849 61 143 4.3 6.1 0.00 0.00 0.00 64 1005.0
20260509201349 62 163 4.3 7.0 0.00 0.00 0.00 64 1005.0
20260509200850 62 167 3.5 6.1 0.00 0.00 0.00 63 1005.0
20260509200349 62 176 4.3 6.1 0.00 0.00 0.00 63 1006.0
20260509195849 62 163 5.2 7.0 0.00 0.00 0.00 63 1006.0
20260509195350 62 167 5.2 7.0 0.00 0.00 0.00 63 1006.0
20260509194849 62 163 3.5 5.2 0.00 0.00 0.00 64 1006.0
20260509194349 62 162 4.3 7.0 0.00 0.00 0.00 63 1006.0
20260509193849 62 206 3.5 6.1 0.00 0.00 0.00 63 1006.0
20260509193349 62 157 3.5 5.2 0.00 0.00 0.00 63 1006.0
20260509192849 61 148 3.5 5.2 0.00 0.00 0.00 63 1006.0
20260509192349 61 176 3.5 4.3 0.00 0.00 0.00 62 1006.0
20260509191849 60 194 2.6 5.2 0.00 0.00 0.00 64 1006.0
20260509191349 60 184 1.7 3.5 0.00 0.00 0.00 66 1006.0
20260509190849 60 157 5.2 6.1 0.00 0.00 0.00 64 1006.0
20260509190349 61 166 3.5 6.1 0.00 0.00 0.00 64 1006.0
20260509185849 61 171 4.3 7.0 0.00 0.00 0.00 62 1006.0
20260509185352 60 163 5.2 7.8 0.00 0.00 0.00 64 1006.0
20260509184850 60 177 4.3 6.1 0.00 0.00 0.00 65 1007.0
20260509184349 61 177 5.2 7.8 0.00 0.00 0.00 63 1007.0
20260509183849 60 202 2.6 4.3 0.00 0.00 0.00 65 1007.0
20260509183350 60 167 4.3 6.1 0.00 0.00 0.00 64 1007.0
20260509182850 61 145 4.3 6.1 0.00 0.00 0.00 63 1007.0
20260509182349 61 159 5.2 7.0 0.00 0.00 0.00 62 1007.0
20260509181849 62 159 3.5 7.0 0.00 0.00 0.00 62 1006.0
20260509181349 62 173 3.5 5.2 0.00 0.00 0.00 62 1006.0
20260509180849 62 211 4.3 7.8 0.00 0.00 0.00 61 1006.0
20260509180350 62 184 4.3 5.2 0.00 0.00 0.00 60 1006.0
20260509175850 62 179 4.3 5.2 0.00 0.00 0.00 60 1006.0
20260509175349 62 186 5.2 7.8 0.00 0.00 0.00 60 1006.0
20260509174849 62 184 3.5 7.0 0.00 0.00 0.00 58 1006.0
20260509174349 62 209 2.6 3.5 0.00 0.00 0.00 58 1006.0
20260509173849 62 178 3.5 5.2 0.00 0.00 0.00 61 1006.0
20260509173350 62 198 3.5 7.0 0.00 0.00 0.00 58 1006.0
20260509172850 61 173 4.3 8.7 0.00 0.00 0.00 58 1007.0
20260509172350 61 150 6.1 7.8 0.00 0.00 0.00 58 1007.0
20260509171849 60 157 3.5 5.2 0.00 0.00 0.00 60 1007.0
20260509171349 60 155 5.2 7.8 0.00 0.00 0.00 60 1007.0
20260509170849 60 168 3.5 4.3 0.00 0.00 0.00 59 1007.0
20260509170349 61 179 4.3 6.1 0.00 0.00 0.00 58 1007.0
20260509165849 61 195 2.6 3.5 0.00 0.00 0.00 58 1007.0
20260509165351 60 157 4.3 6.1 0.00 0.00 0.00 57 1007.0
20260509164849 61 153 3.5 5.2 0.00 0.00 0.00 56 1007.0
20260509164349 61 186 2.6 4.3 0.00 0.00 0.00 57 1007.0
20260509163849 60 134 1.7 2.6 0.00 0.00 0.00 60 1007.0
20260509163349 61 159 3.5 4.3 0.00 0.00 0.00 58 1007.0
20260509162849 61 194 4.3 5.2 0.00 0.00 0.00 58 1007.0
20260509162350 61 134 3.5 6.1 0.00 0.00 0.00 58 1007.0
20260509161849 60 153 3.5 5.2 0.00 0.00 0.00 60 1007.0
20260509161349 60 141 4.3 6.1 0.00 0.00 0.00 58 1007.0
20260509160849 60 157 1.7 3.5 0.00 0.00 0.00 60 1008.0
20260509160349 60 185 2.6 4.3 0.00 0.00 0.00 60 1008.0
20260509155849 60 169 4.3 7.0 0.00 0.00 0.00 61 1008.0
20260509155349 59 233 5.2 7.0 0.00 0.00 0.00 64 1008.0
20260509154849 58 195 2.6 4.3 0.00 0.00 0.00 63 1008.0
20260509154350 58 204 4.3 7.8 0.00 0.00 0.00 65 1008.0
20260509153849 58 239 5.2 7.0 0.00 0.00 0.00 64 1008.0
20260509153352 58 224 5.2 7.8 0.00 0.00 0.00 65 1008.0
20260509152849 58 235 4.3 7.0 0.00 0.00 0.00 64 1008.0
20260509152349 58 196 2.6 6.1 0.00 0.00 0.00 63 1008.0
20260509151849 58 163 3.5 6.1 0.00 0.00 0.00 63 1008.0
20260509151349 59 212 2.6 5.2 0.00 0.00 0.00 61 1008.0
20260509150849 58 230 3.5 6.1 0.00 0.00 0.00 63 1008.0
20260509150350 58 231 5.2 7.0 0.00 0.00 0.00 62 1008.0
20260509145849 58 150 3.5 3.5 0.00 0.00 0.00 61 1008.0
20260509145349 59 194 1.7 2.6 0.00 0.00 0.00 62 1008.0
20260509144849 59 145 3.5 4.3 0.00 0.00 0.00 59 1008.0
20260509144349 58 163 3.5 5.2 0.00 0.00 0.00 61 1008.0
20260509143849 58 173 3.5 7.0 0.00 0.00 0.00 60 1008.0
20260509143350 58 173 2.6 3.5 0.00 0.00 0.00 62 1008.0
20260509142850 58 159 4.3 7.0 0.00 0.00 0.00 60 1008.0
20260509142350 57 172 3.5 5.2 0.00 0.00 0.00 59 1008.0
20260509141849 57 163 3.5 6.1 0.00 0.00 0.00 61 1008.0
20260509141349 57 146 4.3 6.1 0.00 0.00 0.00 59 1008.0
20260509140849 57 195 3.5 4.3 0.00 0.00 0.00 59 1009.0
20260509140350 57 151 2.6 6.1 0.00 0.00 0.00 60 1009.0
20260509135849 56 154 3.5 4.3 0.00 0.00 0.00 62 1009.0
20260509135350 56 154 4.3 6.1 0.00 0.00 0.00 62 1009.0
20260509134850 56 178 3.5 4.3 0.00 0.00 0.00 62 1009.0
20260509134350 56 184 3.5 4.3 0.00 0.00 0.00 62 1009.0
20260509133849 56 162 5.2 7.0 0.00 0.00 0.00 62 1009.0
20260509133350 56 164 3.5 5.2 0.00 0.00 0.00 63 1009.0
20260509132849 56 153 3.5 4.3 0.00 0.00 0.00 63 1009.0
20260509132350 56 152 3.5 5.2 0.00 0.00 0.00 63 1009.0
20260509131849 56 147 4.3 5.2 0.00 0.00 0.00 61 1009.0
20260509131350 55 174 3.5 5.2 0.00 0.00 0.00 62 1009.0
20260509130849 55 140 5.2 7.8 0.00 0.00 0.00 62 1009.0
20260509130349 55 159 5.2 7.0 0.00 0.00 0.00 61 1009.0
20260509125850 55 155 3.5 4.3 0.00 0.00 0.00 61 1009.0
20260509125349 55 152 3.5 5.2 0.00 0.00 0.00 60 1009.0
20260509124849 55 158 2.6 3.5 0.00 0.00 0.00 60 1009.0
20260509124350 54 142 3.5 5.2 0.00 0.00 0.00 59 1009.0
20260509123849 54 162 3.5 4.3 0.00 0.00 0.00 58 1009.0
20260509123349 54 137 4.3 7.8 0.00 0.00 0.00 56 1009.0
20260509122850 54 147 3.5 4.3 0.00 0.00 0.00 56 1009.0
20260509122349 54 146 3.5 4.3 0.00 0.00 0.00 54 1009.0
20260509121849 53 149 4.3 5.2 0.00 0.00 0.00 53 1009.0
20260509121349 53 152 4.3 6.1 0.00 0.00 0.00 51 1009.0
20260509120849 53 139 4.3 6.1 0.00 0.00 0.00 50 1009.0
20260509120349 52 141 5.2 7.8 0.00 0.00 0.00 49 1009.0
20260509115854 52 131 5.2 7.8 0.00 0.00 0.00 50 1009.0
20260509115349 51 131 5.2 7.0 0.00 0.00 0.00 50 1009.0
20260509114849 51 131 3.5 6.1 0.00 0.00 0.00 51 1009.0
20260509114349 51 137 3.5 4.3 0.00 0.00 0.00 50 1009.0
20260509113849 51 142 2.6 3.5 0.00 0.00 0.00 51 1009.0
20260509113349 50 138 2.6 4.3 0.00 0.00 0.00 51 1009.0
20260509112851 50 144 2.6 4.3 0.00 0.00 0.00 50 1009.0
20260509112349 50 137 3.5 5.2 0.00 0.00 0.00 51 1009.0
20260509111849 49 151 2.6 3.5 0.00 0.00 0.00 51 1009.0
20260509111350 49 138 3.5 4.3 0.00 0.00 0.00 52 1009.0
20260509110850 48 144 3.5 4.3 0.00 0.00 0.00 53 1009.0
20260509110349 48 142 3.5 4.3 0.00 0.00 0.00 54 1009.0
20260509105849 48 128 3.5 5.2 0.00 0.00 0.00 54 1009.0
20260509105350 47 136 3.5 4.3 0.00 0.00 0.00 55 1009.0
20260509104849 46 132 3.5 6.1 0.00 0.00 0.00 56 1009.0
20260509104350 46 133 3.5 5.2 0.00 0.00 0.00 56 1009.0
20260509103849 46 121 3.5 6.1 0.00 0.00 0.00 58 1009.0
20260509103349 45 111 2.6 4.3 0.00 0.00 0.00 58 1009.0
20260509102849 45 99 3.5 5.2 0.00 0.00 0.00 58 1009.0
20260509102350 44 103 3.5 5.2 0.00 0.00 0.00 59 1009.0
20260509101849 44 104 2.6 4.3 0.00 0.00 0.00 59 1009.0
20260509101349 44 114 3.5 3.5 0.00 0.00 0.00 60 1009.0
20260509100850 43 118 3.5 4.3 0.00 0.00 0.00 59 1009.0
20260509100349 43 120 2.6 4.3 0.00 0.00 0.00 60 1009.0
20260509095849 43 123 3.5 4.3 0.00 0.00 0.00 60 1009.0
20260509095349 43 131 2.6 3.5 0.00 0.00 0.00 61 1009.0
20260509094850 43 128 1.7 3.5 0.00 0.00 0.00 61 1009.0
20260509094349 43 128 2.6 3.5 0.00 0.00 0.00 61 1009.0
20260509093850 43 130 2.6 3.5 0.00 0.00 0.00 60 1009.0
20260509093349 43 128 2.6 3.5 0.00 0.00 0.00 60 1009.0
20260509092849 43 120 3.5 3.5 0.00 0.00 0.00 60 1009.0
20260509092349 43 116 3.5 3.5 0.00 0.00 0.00 60 1009.0
20260509091849 43 109 2.6 3.5 0.00 0.00 0.00 60 1009.0
20260509091349 42 118 2.6 3.5 0.00 0.00 0.00 61 1009.0
20260509090850 42 125 1.7 2.6 0.00 0.00 0.00 61 1009.0
20260509090349 42 127 0.9 1.7 0.00 0.00 0.00 61 1009.0
20260509085849 42 135 1.7 3.5 0.00 0.00 0.00 62 1009.0
20260509085349 42 127 2.6 3.5 0.00 0.00 0.00 61 1009.0
20260509084849 43 128 2.6 3.5 0.00 0.00 0.00 61 1009.0
20260509084350 43 133 1.7 2.6 0.00 0.00 0.00 60 1009.0
20260509083849 43 148 1.7 3.5 0.00 0.00 0.00 60 1010.0
20260509083349 42 134 1.7 2.6 0.00 0.00 0.00 61 1010.0
20260509082849 42 133 1.7 3.5 0.00 0.00 0.00 62 1010.0
20260509082349 43 133 2.6 3.5 0.00 0.00 0.00 61 1010.0
20260509081849 43 130 2.6 3.5 0.00 0.00 0.00 61 1010.0
20260509081349 43 121 2.6 3.5 0.00 0.00 0.00 61 1010.0
20260509080849 43 116 2.6 3.5 0.00 0.00 0.00 60 1010.0
20260509080350 43 107 2.6 3.5 0.00 0.00 0.00 60 1010.0
20260509075850 43 117 1.7 1.7 0.00 0.00 0.00 61 1010.0
20260509075349 43 109 1.7 2.6 0.00 0.00 0.00 61 1010.0
20260509074849 43 119 2.6 3.5 0.00 0.00 0.00 61 1010.0
20260509074349 43 108 1.7 3.5 0.00 0.00 0.00 61 1010.0
20260509073849 43 119 0.9 1.7 0.00 0.00 0.00 61 1010.0
20260509073349 43 125 1.7 1.7 0.00 0.00 0.00 61 1010.0
20260509072850 43 124 1.7 2.6 0.00 0.00 0.00 61 1010.0
20260509072350 43 128 1.7 2.6 0.00 0.00 0.00 60 1010.0
20260509071849 43 134 1.7 2.6 0.00 0.00 0.00 60 1010.0
20260509071350 43 123 1.7 2.6 0.00 0.00 0.00 60 1010.0
20260509070849 43 124 1.7 2.6 0.00 0.00 0.00 60 1010.0
20260509070349 43 123 1.7 2.6 0.00 0.00 0.00 60 1010.0
20260509065849 43 124 0.9 1.7 0.00 0.00 0.00 59 1010.0
20260509065349 44 126 1.7 2.6 0.00 0.00 0.00 60 1010.0
20260509064849 44 121 0.9 1.7 0.00 0.00 0.00 60 1010.0
20260509064349 44 131 1.7 3.5 0.00 0.00 0.00 59 1010.0
20260509063850 44 134 1.7 2.6 0.00 0.00 0.00 59 1010.0
20260509063349 44 141 1.7 3.5 0.00 0.00 0.00 58 1010.0
20260509062850 44 144 1.7 3.5 0.00 0.00 0.00 58 1010.0
20260509062350 44 145 1.7 2.6 0.00 0.00 0.00 57 1010.0
20260509061851 43 147 1.7 3.5 0.00 0.00 0.00 57 1010.0
20260509061350 43 150 2.6 3.5 0.00 0.00 0.00 57 1010.0
20260509060849 42 137 1.7 3.5 0.00 0.00 0.00 57 1010.0
20260509060350 42 129 1.7 3.5 0.00 0.00 0.00 58 1010.0
20260509055849 42 132 1.7 3.5 0.00 0.00 0.00 57 1010.0
20260509055349 42 130 1.7 2.6 0.00 0.00 0.00 57 1010.0
20260509054849 42 131 1.7 2.6 0.00 0.00 0.00 56 1011.0
20260509054349 42 141 1.7 3.5 0.00 0.00 0.00 56 1011.0
20260509053849 42 132 1.7 3.5 0.00 0.00 0.00 57 1011.0
20260509053349 42 140 2.6 3.5 0.00 0.00 0.00 57 1011.0
20260509052849 42 137 2.6 3.5 0.00 0.00 0.00 56 1011.0
20260509052350 42 140 2.6 3.5 0.00 0.00 0.00 56 1011.0
20260509051849 42 136 2.6 3.5 0.00 0.00 0.00 57 1011.0
20260509051349 42 138 2.6 3.5 0.00 0.00 0.00 57 1011.0
20260509050849 41 137 2.6 3.5 0.00 0.00 0.00 58 1011.0
20260509050349 41 137 2.6 3.5 0.00 0.00 0.00 60 1011.0
20260509045849 41 126 2.6 3.5 0.00 0.00 0.00 61 1011.0
20260509045349 41 133 1.7 2.6 0.00 0.00 0.00 60 1011.0
20260509044849 41 142 1.7 2.6 0.00 0.00 0.00 60 1011.0
20260509044349 40 135 1.7 2.6 0.00 0.00 0.00 62 1011.0
20260509043850 40 134 1.7 2.6 0.00 0.00 0.00 62 1011.0
20260509043349 41 131 1.7 2.6 0.00 0.00 0.00 62 1011.0
20260509042849 41 131 2.6 2.6 0.00 0.00 0.00 61 1011.0
20260509042349 41 147 2.6 3.5 0.00 0.00 0.00 61 1011.0
20260509041849 41 148 2.6 3.5 0.00 0.00 0.00 61 1011.0
20260509041349 40 149 2.6 3.5 0.00 0.00 0.00 61 1011.0
20260509040849 40 160 1.7 2.6 0.00 0.00 0.00 61 1011.0
20260509040350 39 143 1.7 2.6 0.00 0.00 0.00 63 1011.0
20260509035850 39 134 1.7 1.7 0.00 0.00 0.00 66 1011.0
20260509035349 39 123 1.7 2.6 0.00 0.00 0.00 67 1011.0
20260509034849 39 126 1.7 2.6 0.00 0.00 0.00 65 1011.0
20260509034349 40 125 1.7 3.5 0.00 0.00 0.00 64 1011.0
20260509033850 40 123 1.7 2.6 0.00 0.00 0.00 63 1011.0
20260509033349 40 153 2.6 2.6 0.00 0.00 0.00 61 1011.0
20260509032849 40 146 1.7 2.6 0.00 0.00 0.00 61 1011.0
20260509032349 39 155 2.6 3.5 0.00 0.00 0.00 61 1011.0
20260509031849 38 163 1.7 2.6 0.00 0.00 0.00 63 1011.0
20260509031349 38 156 1.7 2.6 0.00 0.00 0.00 68 1011.0
20260509030849 38 125 1.7 1.7 0.00 0.00 0.00 73 1011.0
20260509030349 39 120 1.7 2.6 0.00 0.00 0.00 69 1011.0
20260509025849 39 119 1.7 1.7 0.00 0.00 0.00 67 1011.0
20260509025349 39 128 1.7 1.7 0.00 0.00 0.00 69 1011.0
20260509024850 40 114 2.6 2.6 0.00 0.00 0.00 67 1011.0
20260509024349 40 97 2.6 3.5 0.00 0.00 0.00 67 1011.0
20260509023849 40 104 2.6 3.5 0.00 0.00 0.00 66 1011.0
20260509023349 40 111 3.5 4.3 0.00 0.00 0.00 65 1011.0
20260509022849 40 115 1.7 3.5 0.00 0.00 0.00 66 1011.0